User: anonymous   Login
Location: Limerick
(52.6800°N, 8.6400°W)
Time: 19:51:06
(UTC+01:00)
Language:

Sapphire - Orbit

View from above orbital plane
View from above orbital plane
View from above satellite
View from above satellite

Ground track
Ground track

The orbit data is extracted from the following two-line orbital elements,

1 26932U 01043D   16211.42266156 -.00000030  00000-0  20255-4 0  9995
2 26932  67.0544 205.8309 0007148 247.9003 112.1340 14.30218510774210
Epoch (UTC): 29 July 2016 10:08:37
Eccentricity: 0.0007148
inclination: 67.0544°
perigee height: 786 km
apogee height: 796 km
right ascension of ascending node: 205.8309°
argument of perigee: 247.9003°
revolutions per day: 14.30218510
mean anomaly at epoch: 112.1340°
orbit number at epoch: 77421

The dashed part of the orbit path shows where the satellite is in the earth's shadow,  

DLR